Location: Botcanou
(48.1951°N, 3.3574°W)
Time: 20:56:55
(UTC+00:00)

Daily predictions for brighter satellites

Satellite Brightness Start Highest point End
(mag) Time Altitude Azimuth Time Altitude Azimuth Time Altitude Azimuth
CSL-04 Rocket 4.0 18:27:47 10° SE 18:33:00 48° ENE 18:38:17 10° N
ATLAS 2AS CENTAUR R/B 4.0 18:28:06 10° SSE 18:33:47 22° ESE 18:39:27 10° ENE
NOSS 2-2 (D) 3.1 18:30:20 10° SW 18:33:50 86° SE 18:37:48 10° NE
Cosmos 1025 Rocket 3.6 18:29:45 10° N 18:33:54 39° ENE 18:38:01 10° SE
Cosmos 1937 Rocket 3.8 18:28:40 10° SSW 18:33:54 73° WNW 18:39:07 10° NNE
Okean 2 Rocket 3.6 18:30:05 10° SSE 18:34:12 37° E 18:38:19 10° NNE
YAOGAN 1 2.6 18:31:11 10° SSE 18:35:27 63° ENE 18:39:45 10° N
ATLAS 3B R/B 3.8 18:29:55 10° NW 18:35:51 31° NNE 18:41:55 10° E
SKYMED 2 3.7 18:33:56 10° NNE 18:38:19 83° WNW 18:42:39 10° SSW
Abrixas rocket 1.8 18:36:22 10° W 18:39:13 83° S 18:42:03 10° ESE
CREW DRAGON DEMO-1 DEB 2.9 18:38:10 10° WNW 18:41:11 68° NNE 18:44:12 10° ESE
CZ-4B R/B 4.3 18:39:38 10° NNW 18:42:26 23° WNW 18:45:16 10° WSW
Cosmos 1536 Rocket 4.1 18:39:29 10° N 18:43:40 38° ENE 18:47:51 10° SE
Cosmos 1125 Rocket 4.2 18:41:49 10° SSE 18:46:30 33° ESE 18:51:14 10° NE
SJ-6B 4.4 18:48:31 10° ESE 18:50:59 17° ENE 18:53:29 10° NNE
CZ-2D R/B 4.0 18:49:09 10° S 18:52:59 58° W 18:56:50 10° NNW
CZ-4 R/B 1.8 18:48:51 10° S 18:53:02 73° WSW 18:57:13 10° NNW
Cosmos 2150 Rocket 4.2 18:48:04 10° S 18:53:18 55° ESE 18:58:39 10° NNE
USA 238 DEB 3.9 18:46:11 10° NW 18:53:25 88° NE 19:00:57 10° SE
USA 238 3.9 18:46:18 10° NW 18:53:32 88° NE 19:01:04 10° SE
SJ-11-01 4.3 18:49:30 10° SSE 18:54:08 60° ENE 18:58:46 10° N
Cosmos 1464 Rocket 4.0 18:49:03 10° S 18:55:05 63° E 19:01:12 10° NNE
CZ-2C R/B 3.2 18:49:49 10° SSE 18:55:12 77° ENE 19:00:54 10° N
Cosmos 1674 3.5 18:52:35 10° N 18:56:03 31° ENE 18:59:30 10° SE
Okean-O 3.3 18:52:33 10° S 18:56:55 59° WSW 19:01:20 10° NNW
Cosmos 2285 Rocket 4.5 18:51:35 10° SSE 18:57:14 37° E 19:02:59 10° NE
MOS 1 Rocket 3.4 18:58:59 10° NNE 19:03:10 42° E 19:07:13 10° S
FREGAT/IRIS 4.3 19:04:41 14° ENE 19:04:41 14° ENE 19:06:03 10° NNE
In-Cosmos 22 4.1 19:04:58 10° NNW 19:10:20 89° WSW 19:15:44 10° S
ARGOS 3.2 19:05:32 10° SSE 19:10:49 63° ENE 19:16:09 10° N
Cosmos 1048 Rocket 4.1 19:06:00 10° NNW 19:11:21 86° WSW 19:16:44 10° SSE
CZ-2C R/B 3.4 19:08:25 10° NNE 19:13:20 31° E 19:18:15 10° SSE
Cosmos 1340 Rocket 4.5 19:15:11 16° ENE 19:15:11 16° ENE 19:17:03 10° NE
Cosmos 1733 4.3 19:13:48 14° SE 19:16:09 24° E 19:19:15 10° NE
Cosmos 2151 Rocket 3.5 19:12:21 10° S 19:16:48 72° E 19:21:18 10° NNE
Lacrosse 5 rocket 3.1 19:13:26 10° NW 19:17:07 26° N 19:20:43 11° ENE
HJ-1C 3.4 19:14:24 10° S 19:17:41 79° WSW 19:21:01 10° NNW
NOSS 3-2 (A) 4.4 19:10:23 10° NW 19:17:50 69° SW 19:26:14 10° SSE
DMSP B5D1-3 4.5 19:12:54 10° NNE 19:18:02 87° ESE 19:23:09 10° SSW
Cosmos 2082 Rocket 3.7 19:14:23 10° N 19:18:32 20° NE 19:21:17 15° ENE
BREEZE-M DEB (TANK) 3.4 19:18:29 10° W 19:21:22 49° SSW 19:27:36 14° SE
BREEZE-M R/B 4.4 19:09:19 10° WSW 19:22:06 63° SSE 19:24:25 21° E
Cosmos 494 Rocket 4.0 19:18:51 10° NNW 19:24:09 82° ENE 19:29:26 10° SSE
ATLAS 5 CENTAUR R/B 4.4 19:22:42 10° WNW 19:25:50 28° SW 19:33:27 10° SSE
Meteor 1-15 Rocket 4.2 19:21:55 10° S 19:27:29 62° E 19:33:11 10° NNE
Cosmos 1805 3.5 19:24:14 10° SSE 19:27:57 44° E 19:31:42 10° NNE
OBJECT-B 2.3 19:28:48 21° ENE 19:28:48 21° ENE 19:31:05 10° NNE
Milstar 3 Cent rocket 4.4 19:27:53 10° SSW 19:29:47 11° S 19:31:29 10° SSE
Ariane Rocket 3.1 19:28:06 12° SSE 19:32:41 59° ENE 19:37:41 10° N
SL-08 RB Rocket 3.6 19:28:09 10° SSE 19:32:42 69° ENE 19:37:13 10° N
H-2A R/B 2.4 19:29:09 10° S 19:34:07 66° WSW 19:39:16 10° NNW
Cosmos 1269 Rocket 4.1 19:30:48 10° NNW 19:36:05 60° ENE 19:39:33 21° SE
Nadezhda 4 Rocket 4.0 19:31:27 10° N 19:37:35 81° W 19:43:43 10° S
KORONAS-FOTON 3.8 19:33:44 10° N 19:37:42 87° E 19:41:32 11° S
Cosmos 1626 2.5 19:37:52 10° N 19:41:25 41° ENE 19:42:02 37° ESE
USA 186 1.6 19:42:34 28° SSE 19:44:10 84° ENE 19:47:29 10° N
MetOp-A 4.2 19:40:20 18° SE 19:44:13 60° ENE 19:49:30 10° N
COSMOS 2406 3.4 19:39:35 10° NNW 19:45:09 54° ENE 19:47:55 29° ESE
Cosmos 1844 Rocket 2.9 19:40:32 10° SW 19:46:05 71° WNW 19:51:43 10° NNE
ISS -3.0 19:43:17 10° W 19:46:34 47° N 19:47:46 31° NE
Cosmos 2278 Rocket 3.1 19:45:36 10° SSE 19:51:32 28° E 19:55:15 10° NE
Lacrosse 4 Rocket 2.6 19:49:05 10° NNW 19:52:30 25° NE 19:52:52 25° NE
IRS-1A Rocket 4.3 19:47:48 11° SSE 19:53:31 86° ENE 19:59:22 10° NNW
Cosmos 1844 3.9 19:48:04 10° SSW 19:53:45 76° WNW 19:59:25 10° NNE
Meteor 1-22 Rocket 4.4 19:49:38 10° S 19:55:23 55° E 20:01:19 10° NNE
Meteor 2-5 Rocket 3.7 19:50:08 10° N 19:55:51 84° ENE 20:00:46 15° SSE
NOSS 3-2 (C) 4.4 19:48:41 10° NW 19:56:06 63° WSW 20:03:38 13° SSE
Cosmos 2034 Rocket 4.4 19:49:56 10° SSW 19:56:15 68° W 20:02:35 10° N
Meteor 1-24 Rocket 3.7 19:52:36 10° N 19:58:10 69° ENE 20:01:37 25° SSE
Exosat Rocket 3.5 19:52:53 10° SSW 19:58:14 87° WNW 20:03:17 10° NNE
Okean 1 Rocket 3.1 19:56:01 10° S 20:00:30 87° W 20:05:02 10° N
NOSS 3-4 (A) 3.3 19:55:15 10° SSW 20:01:05 66° SE 20:07:21 10° NE
NOSS 3-4 (C) 3.3 19:55:22 10° SSW 20:01:11 65° SE 20:07:28 10° NE
SL-14 R/B 3.2 19:57:28 10° N 20:01:24 63° ENE 20:01:55 56° ESE
Resurs 01 Rocket 2.3 20:03:26 37° ENE 20:03:26 37° ENE 20:07:32 10° N
Cosmos 1766 3.3 20:05:47 10° SSW 20:09:42 76° W 20:13:41 10° N
Cosmos 1833 Rocket 2.7 20:04:40 10° NNW 20:10:18 62° ENE 20:11:54 44° ESE
Cosmos 2251 Rocket 4.1 20:08:10 10° N 20:13:13 39° ENE 20:13:44 38° ENE
Abrixas rocket 4.0 20:11:49 10° W 20:13:27 22° WSW 20:13:27 22° WSW
CENTAUR R/B 3.8 20:06:59 10° NW 20:14:51 55° WSW 20:22:00 16° SSE
ARIANE 5 R/B 3.9 20:20:05 27° NE 20:20:05 27° NE 20:22:50 10° N
SPOT 3 Rocket 3.4 20:20:50 52° SE 20:22:02 74° ENE 20:27:12 10° NNW
ATLAS 2AS CENTAUR R/B 2.9 20:15:50 10° SSW 20:23:47 82° SE 20:31:42 10° NE
Cosmos 1634 Rocket 3.9 20:17:39 10° S 20:23:50 88° W 20:30:06 10° N
SJ-6B 3.7 20:24:09 34° SW 20:25:18 45° W 20:28:58 10° NNW
Resurs 1-3 3.5 20:26:18 74° SSE 20:26:42 90° NNE 20:31:07 10° NNW
ATLAS 3B R/B 2.6 20:20:35 10° NW 20:27:29 83° NE 20:29:50 46° SE
Cosmos 1892 Rocket 3.4 20:24:09 10° N 20:28:31 89° E 20:28:35 87° SSE
Cosmos 1655 Rocket 4.0 20:30:53 10° N 20:37:07 60° ENE 20:37:50 57° ESE
Cosmos 1340 Rocket 3.8 20:50:42 45° WNW 20:50:42 45° WNW 20:54:29 10° N
CZ-2C R/B 3.7 20:48:28 10° N 20:53:46 46° WNW 20:59:05 10° SW
Lacrosse 5 rocket 2.6 20:52:51 10° NW 20:56:20 40° N 20:56:20 40° N
Cosmos 2180 Rocket 4.4 20:57:17 68° S 20:58:11 85° E 21:04:35 10° N
MetOp-B 4.1 20:58:51 75° NNE 20:58:51 75° NNE 21:03:50 10° NNW
Cosmos 2279 Rocket 4.1 20:57:29 35° SSW 21:00:19 76° W 21:06:37 10° N
OBJECT-B 3.5 21:02:00 20° WNW 21:02:00 20° WNW 21:03:34 10° NW
Cosmos 2098 Rocket 3.7 20:54:48 10° N 21:01:36 87° ENE 21:01:45 85° SE
Cosmos 2082 Rocket 2.1 20:57:47 10° NNW 21:03:08 80° NNW 21:03:08 80° NNW
Spot 2 Rocket 4.1 21:05:26 47° N 21:05:26 47° N 21:09:09 10° N
Terra 3.8 21:21:44 21° NNE 21:21:44 21° NNE 21:23:32 10° N
ISS -0.4 21:20:23 10° WNW 21:20:44 12° WNW 21:20:44 12° WNW
SPOT 1/Viking Rocket 4.4 21:29:22 45° NNW 21:29:22 45° NNW 21:32:55 10° NNW
Lacrosse 4 Rocket 3.7 21:27:28 10° NW 21:29:10 23° WNW 21:29:10 23° WNW
Cosmos 2278 Rocket 2.9 21:33:01 43° W 21:34:14 51° NW 21:39:47 10° NNE
Resurs 01 Rocket 3.7 21:41:00 24° WNW 21:41:00 24° WNW 21:43:48 10° NW
Cosmos 2266 Rocket 4.5 21:39:54 10° NNW 21:45:08 54° WNW 21:45:08 54° WNW
Cosmos 1833 Rocket 4.5 21:49:21 10° NW 21:53:36 24° W 21:53:36 24° W
ATLAS 2AS CENTAUR R/B 4.2 22:08:12 10° W 22:15:35 39° NNW 22:22:47 10° NE
ATLAS 3B R/B 4.3 22:12:07 10° WNW 22:17:06 25° WSW 22:17:06 25° WSW
